CAPE
3082 2800 2673 2573 2348 2331 2211 2218 2263 2134 1951 1969 1951 1888 1521 755 450 199 35 397 753 1183
2323 1634 1153 1434 1703 1668 1855 1798 1833 1849 1884 1837 1928 2026 2062 2103 1401 977 339 696 1488 1732
950 908 899 915 937 937 686 458 584 623 845 824 958 1113 1529 1506 1478 1297 1560 1610 1632 1439
457 467 405 430 425 289 210 59 44 213 423 311 352 605 912 809 722 761 847 884 718 575
403 316 293 223 139 100 33 0 0 2 10 27 144 535 468 291 230 331 316 221 437 380
104 196 329 288 186 88 44 0 0 0 46 61 69 203 308 251 192 189 143 126 228 349
23 16 67 128 81 20 1 0 0 18 0 57 103 32 46 70 145 185 77 195 336 207
171 90 8 14 19 13 76 119 101 124 171 222 246 124 283 282 291 235 169 218 230 58
0 9 36 43 105 229 301 322 294 335 308 343 11 0 0 0 0 0 0 152 173 104
2 0 0 6 47 211 459 509 400 244 26 0 0 0 0 0 0 0 0 0 72 98
0 1 2 0 27 240 336 249 102 0 0 0 0 0 0 0 0 0 0 0 12 192
5 0 0 0 4 122 59 36 6 0 0 0 0 0 0 0 0 0 0 0 0 133
0 4 0 0 0 0 0 0 0 0 0 0 0 0 0 0 0 0 0 0 5 42
0 0 0 6 0 0 0 0 0 0 0 0 0 0 0 0 0 0 0 0 0 2
CIN
-45 -51 -51 -54 -62 -56 -43 -49 -61 -61 -68 -79 -61 -41 -72 -131 -159 -52 -227 -68 -9 -37
-63 -95 -170 -149 -112 -82 -67 -55 -65 -54 -30 -31 -24 -10 -1 -0 -7 -18 -14 -4 -15 -7
-224 -184 -177 -172 -153 -150 -164 -178 -153 -139 -105 -85 -65 -46 -6 -3 -4 -15 -7 -0 -3 -10
-237 -242 -247 -211 -192 -197 -205 -211 -167 -113 -80 -93 -75 -44 -16 -16 -22 -24 -18 -23 -46 -71
-195 -232 -210 -205 -234 -254 -213 -0 -0 -181 -163 -122 -72 -34 -35 -51 -65 -53 -72 -100 -67 -93
-297 -230 -157 -156 -191 -217 -187 -0 -0 -0 -67 -55 -60 -53 -54 -66 -76 -87 -111 -122 -95 -70
-261 -302 -241 -203 -214 -218 -63 -0 -0 -122 -0 -61 -28 -18 -57 -69 -51 -49 -104 -70 -33 -62
-160 -188 -274 -290 -232 -205 -141 -97 -78 -67 -44 -37 -29 -26 -26 -22 -18 -21 -33 -23 -24 -103
-0 -227 -250 -293 -246 -169 -126 -103 -79 -62 -50 -59 -59 -0 -0 -0 -0 -0 -0 -43 -38 -87
-9 -4 -0 -282 -274 -171 -121 -110 -99 -85 -79 -0 -0 -0 -0 -0 -0 -0 -0 -0 -141 -130
-0 -0 -10 -0 -265 -195 -138 -167 -161 -0 -0 -0 -0 -0 -0 -0 -0 -0 -0 -0 -134 -97
-8 -0 -0 -0 -211 -184 -215 -232 -249 -0 -0 -0 -0 -0 -0 -0 -0 -0 -0 -0 -0 -141
-0 -5 -0 -0 -0 -0 -0 -0 -0 -0 -0 -0 -0 -0 -0 -0 -0 -0 -0 -0 -55 -260
-0 -0 -0 -3 -0 -0 -0 -0 -0 -0 -0 -0 -0 -0 -0 -0 -0 -0 -0 -0 -0 -146
Wind_Speed
42 47 49 49 53 52 51 49 50 50 49 47 43 45 49 50 46 53 nan 14 16 17
45 45 49 52 55 56 53 53 52 51 49 46 46 48 52 51 45 44 31 33 25 18
46 45 51 55 54 55 57 57 56 52 50 50 48 47 48 50 47 42 33 37 33 30
45 45 49 54 56 56 56 nan nan 49 48 48 46 44 44 45 47 43 41 39 34 29
46 48 50 51 53 56 nan nan nan nan nan nan 47 45 41 40 41 39 39 37 33 31
50 53 52 49 46 nan nan nan nan nan nan nan nan 44 40 37 35 36 36 34 32 33
nan nan nan 49 nan nan nan nan nan nan nan nan 47 nan nan nan 37 33 nan 32 33 30
55 nan nan nan nan nan nan 35 34 37 40 44 47 48 45 41 37 34 30 28 27 nan
nan nan nan nan 41 38 37 37 38 33 36 37 nan nan nan nan nan nan nan 26 24 23
nan nan nan nan nan 40 40 43 38 35 nan nan nan nan nan nan nan nan nan nan nan nan
nan nan nan nan nan 43 45 45 44 nan nan nan nan nan nan nan nan nan nan nan nan 24
nan nan nan nan nan 45 nan nan nan nan nan nan nan nan nan nan nan nan nan nan nan 23
nan nan nan nan nan nan nan nan nan nan nan nan nan nan nan nan nan nan nan nan nan nan
nan nan nan nan nan nan nan nan nan nan nan nan nan nan nan nan nan nan nan nan nan nan
Wind_Direction
257 251 251 255 253 253 253 254 255 258 262 263 265 267 264 267 272 269 nan 278 286 271
253 256 254 254 252 251 252 252 254 255 258 260 261 263 264 267 278 284 292 302 299 284
264 262 254 253 254 254 252 252 253 254 254 257 259 259 263 264 270 277 279 287 291 280
260 257 258 256 253 254 254 nan nan 253 256 257 259 263 264 264 268 271 274 276 276 266
251 251 254 255 255 255 nan nan nan nan nan nan 260 261 263 266 266 266 266 265 264 250
244 256 257 255 252 nan nan nan nan nan nan nan nan 258 258 257 259 258 257 258 255 250
nan nan nan 252 nan nan nan nan nan nan nan nan 254 nan nan nan 254 252 nan 251 251 253
241 nan nan nan nan nan nan 255 255 257 255 253 252 254 257 257 255 252 245 246 249 nan
nan nan nan nan 252 261 263 263 257 257 260 258 nan nan nan nan nan nan nan 233 235 244
nan nan nan nan nan 259 263 261 258 255 nan nan nan nan nan nan nan nan nan nan nan nan
nan nan nan nan nan 259 256 265 261 nan nan nan nan nan nan nan nan nan nan nan nan 236
nan nan nan nan nan 247 nan nan nan nan nan nan nan nan nan nan nan nan nan nan nan 239
nan nan nan nan nan nan nan nan nan nan nan nan nan nan nan nan nan nan nan nan nan nan
nan nan nan nan nan nan nan nan nan nan nan nan nan nan nan nan nan nan nan nan nan nan